CZ-2C R/B, 43610

Orbit data source: Space-Track

CZ-2C R/B, 43610 is space debris in SSO originally from a launch on Fri, 07 Sep 2018 UTC launched from the Taiyaun Space Center, China (TSC). Debris objects in space refer to the collection of defunct objects orbiting the Earth. Examples of debris include non-operational satellites, rocket bodies, and fragments generated from explosions, collisions, or faulty payload assembly.

Loading next visibility...
Identifier
43610, 2018-068B
Orbit
SSO
Country
Flag of CNCN / PRC
Related business
Manufacturer
CALT
Mission
Spacecraft
Bus & Motor
CZ-2 STAGE 2, Unknown motor
Mass
~3,800 kg wet, ~3,800 kg dry
Launch date (UTC)
2018-09-07 (8 years ago)
Launch vehicle
Unknown
Launch site
Taiyaun Space Center, China (TSC)
Object type
Payload
Rocket body
Debris
Shape & HBR
Cyl, 3.7 m
Radar Cross Section
23.715 m², Large (>1 m²)

Expand to show TLE details & history
Last TLE update: 11 hours ago

TLE from 11 hours ago
0 CZ-2C R/B
1 43610U 18068B   26253.56179049  .00000162  00000-0  46061-4 0  9996
2 43610  98.7098 102.7442 0087590  88.6034 272.5195 14.56655856425323
Epoch: 2026-09-10T13:28Z
TLE epoch observation values (Epoch: 2026-09-10T13:28:58.698Z)
Latitude
0.00002°
Longitude
-89.0981°
Altitude
704.773 km
Speed
7.505 km/s
True Right ascension
06h 50m 58s
True Declination
0° 00' 00"
Sunlit
Object was in daylight at epoch
Visualization orbit readout
Latitude
Unknown
Longitude
Unknown
Altitude
Unknown
Speed
Unknown
Apparent Right ascension
Unknown
Apparent Declination
Unknown
Sunlit
N/A
Visualization observer readout
Local Sidereal Time
17:06:15
Azimuth
Unknown
Elevation
Unknown
Doppler factor
Unknown
Orbital elements
Apogee altitude
763.109 km
Perigee altitude
639.095 km
Semi-major axis
7,079.239 km
Eccentricity
0.00876
Inclination
98.7098°
RAAN
102.7442°
Arg. of periapsis
88.6034°
True anomaly
271.51633°
Mean anomaly
272.5195°
Eccentric anomaly
272.01796°
Mean motion
3.64387 °/min
Orbital period
98.8 mins
BSTAR
0.000046061
Loading maneuver chart data...
Computing Atmospheric mass density...
Loading historical data...
Loading historical data...
Loading historical data...
Loading historical data...
Loading historical data...
Loading historical data...
Loading historical data...
Other satellites on launch #68 in the year 2018 (2018-09-07 UTC)

Documentation

Showing up to 5 results
|